Location: Carri�res
(48.9069°N, 2.1792°E)
Time: 13:25:37
(UTC+00:00)

IRS-1C Rocket - Pass Details

Date: 17 January 2021
Orbit: 801 x 805 km, 99.0° (Epoch: 25 February)

Event Time Altitude Azimuth Distance (km) Brightness Sun altitude
Rises 17:26:24 0° 143° (SE) 3,302 7.1 -9.9°
Reaches altitude 10° 17:28:48 10° 138° (SE) 2,375 6.3 -10.2°
Maximum altitude 17:33:46 45° 66° (ENE) 1,081 4.3 -11.0°
Drops below altitude 10° 17:38:46 10° 355° (N) 2,389 6.4 -11.8°
Sets 17:41:11 0° 350° (N) 3,324 7.2 -12.1°
